Theta_e
344 341 337 334 337 339 342 346 345 345 345 345 345 345 343 344 343 332 336 338 342 344 345 344 344 340 338 340 341 341 338 335 335 333 336 338 339 340 337 330 336 338 340
343 336 334 331 332 336 339 344 344 344 344 345 346 346 344 344 343 340 342 343 345 344 344 344 341 337 337 337 334 326 326 328 329 328 334 336 336 338 338 335 339 340 340
343 340 336 332 332 332 334 337 343 342 342 344 346 346 345 344 343 343 344 343 344 343 343 342 338 337 332 319 321 327 328 329 329 329 326 332 336 338 338 339 337 340 340
343 341 339 337 334 333 333 332 334 342 342 343 344 344 344 344 343 344 344 341 342 341 342 340 337 323 318 314 325 327 329 331 329 328 326 327 334 335 337 338 338 338 339
344 342 341 339 335 335 334 334 332 336 342 342 343 342 344 342 342 343 342 337 336 336 339 338 328 318 316 317 328 329 330 330 330 329 328 321 328 334 334 332 333 334 336
345 343 342 342 339 336 336 333 329 332 340 341 342 342 344 341 340 340 339 336 334 334 337 336 323 320 319 323 329 330 330 330 329 329 327 324 327 331 330 331 330 331 329
346 344 343 342 342 337 337 335 334 333 340 341 341 342 343 340 338 339 338 334 335 336 336 333 324 321 320 323 328 329 330 331 330 330 323 324 330 331 330 328 325 322 320
346 346 345 343 342 337 339 337 337 332 340 341 341 342 342 339 337 339 336 334 334 335 333 334 328 323 322 322 328 329 329 330 331 330 323 324 328 330 328 322 321 322 323
347 347 345 343 341 337 338 339 338 336 338 340 340 341 341 338 336 336 335 333 335 336 335 334 332 327 326 325 324 329 330 330 330 331 328 323 328 330 325 324 324 324 323
346 346 345 343 341 338 337 339 340 337 336 339 340 341 340 336 336 335 334 333 335 335 335 334 332 329 327 325 324 327 330 330 329 330 330 323 324 326 325 325 326 326 326
343 345 344 343 340 337 335 338 340 340 338 339 340 341 338 334 335 334 333 333 334 334 334 331 328 326 326 325 323 323 328 329 329 330 330 327 324 325 325 325 326 327 327
337 340 342 343 341 340 338 338 340 341 340 340 341 339 337 336 335 334 333 333 334 334 331 328 326 325 323 322 321 322 327 326 326 327 329 328 323 325 327 328 328 329 329
337 336 338 338 337 338 340 337 335 341 341 341 341 337 335 335 334 334 333 333 333 333 329 327 323 321 323 325 325 325 326 326 325 326 326 325 323 324 327 329 330 330 329
333 335 336 337 336 334 334 337 335 337 341 341 338 336 334 334 333 333 333 333 333 333 329 324 321 321 325 326 326 327 326 326 326 326 328 328 328 326 327 328 329 329 330
331 332 331 332 334 331 332 330 329 334 339 339 337 334 333 333 333 333 333 333 333 330 323 323 327 327 327 326 326 327 328 330 330 330 330 331 331 329 329 330 330 329 329
326 324 323 324 329 333 330 333 331 329 334 335 331 334 332 332 333 333 332 332 328 323 328 329 328 328 327 325 325 327 329 330 331 330 330 331 330 330 330 329 328 328 328
329 329 326 323 323 326 329 328 327 328 330 330 333 330 331 333 332 332 328 327 328 328 329 329 327 325 324 324 327 328 329 329 331 331 330 330 329 330 329 330 329 329 328
329 329 328 326 324 324 326 329 328 328 330 330 330 329 331 332 332 331 330 330 331 329 327 327 327 327 326 328 329 329 328 329 330 331 331 330 330 328 329 330 329 327 325
329 329 329 328 327 326 326 331 331 330 330 331 330 331 332 331 331 330 330 329 328 328 329 329 328 328 328 328 328 328 327 328 330 330 330 328 329 328 329 329 327 325 327
324 328 330 330 331 329 328 333 332 331 330 331 329 329 328 329 330 329 328 328 331 333 331 330 330 330 330 330 329 329 327 328 331 330 330 329 330 329 328 325 325 324 326
323 323 329 329 328 328 329 331 333 332 332 330 329 328 329 328 328 327 329 333 334 333 332 331 331 330 330 330 329 330 330 330 329 329 329 329 327 326 325 325 324 323 323
320 321 327 326 325 327 329 330 332 331 331 329 330 330 333 333 331 333 335 334 334 333 333 332 332 331 330 330 330 331 329 330 331 330 329 327 327 326 323 323 322 322 321
321 321 320 328 325 324 327 330 330 325 329 328 328 329 332 334 335 334 332 333 333 332 333 332 332 331 332 331 331 330 329 329 325 327 327 326 326 325 323 322 321 321 320
325 324 324 328 328 326 327 330 328 328 328 328 329 327 328 328 330 330 331 332 332 332 332 331 331 330 330 331 330 330 330 327 323 325 324 324 322 322 322 321 320 319 319
325 325 326 328 329 329 328 329 328 328 328 327 328 328 329 329 329 329 329 328 327 329 329 328 329 329 330 329 329 327 328 327 324 322 322 322 323 323 321 320 319 318 316
325 326 326 328 328 328 328 328 328 328 328 328 328 328 329 328 328 328 328 327 328 328 327 327 327 328 328 329 327 328 328 325 323 323 321 321 317 319 318 318 318 317 316
Wind_Speed
29 34 31 30 25 23 23 24 22 20 20 19 18 17 17 17 17 18 19 20 19 16 18 20 22 21 20 18 18 18 18 19 17 17 18 18 20 18 16 17 19 17 15
35 36 32 30 28 24 23 23 23 22 21 20 21 19 19 18 18 19 20 19 16 19 18 20 21 18 19 18 20 20 21 20 19 17 16 19 19 19 18 18 18 18 16
34 33 30 29 28 26 23 22 23 22 22 22 21 21 19 19 18 19 18 18 18 19 18 19 18 17 18 19 21 21 19 16 14 16 14 15 17 16 17 19 17 19 18
32 32 30 26 26 25 23 21 22 21 22 23 21 22 21 21 19 19 19 22 19 19 18 17 16 16 18 20 23 19 17 15 12 14 12 13 15 14 14 15 15 15 17
30 32 29 27 25 24 23 21 21 22 21 23 22 22 22 23 22 21 21 22 19 19 16 14 14 15 18 21 21 18 18 18 16 13 11 12 13 13 12 11 12 13 14
28 30 28 25 22 22 21 20 20 23 22 23 23 23 23 24 23 24 23 23 21 20 16 13 13 15 17 20 18 17 16 15 12 10 10 13 14 12 12 12 12 12 11
28 28 27 25 22 20 18 18 19 24 23 24 25 24 25 24 25 26 24 20 21 19 17 14 14 15 15 17 16 14 15 13 11 9 10 12 13 12 12 12 11 11 11
27 25 26 25 22 20 18 18 20 23 24 24 25 25 26 25 28 26 24 19 20 17 17 15 15 14 14 15 15 14 14 13 9 7 8 10 11 10 10 11 11 11 11
26 27 26 24 22 20 18 17 18 22 24 25 25 26 27 25 29 25 24 22 21 19 18 16 14 13 12 12 13 12 11 11 8 5 8 8 9 8 9 9 10 10 10
28 28 28 26 22 21 21 17 16 20 22 23 24 27 28 26 28 25 24 23 21 20 18 16 14 13 11 10 10 11 11 11 7 5 4 5 6 6 7 7 7 8 8
24 26 25 26 23 21 21 19 16 17 21 23 26 29 30 30 28 27 25 23 21 21 19 16 14 12 10 9 8 10 9 8 7 5 2 2 2 4 4 5 5 5 6
26 25 27 27 24 22 19 18 18 16 22 27 31 32 32 31 29 27 25 23 20 19 18 16 13 11 9 8 6 7 8 7 6 4 3 1 1 2 2 3 3 2 3
32 28 26 29 25 20 18 18 17 17 25 31 34 34 31 32 30 27 28 25 21 19 18 16 14 11 10 8 6 7 5 5 6 5 3 1 2 3 3 2 1 2 3
30 31 29 30 26 22 15 19 12 21 25 33 36 34 33 32 31 31 29 27 23 21 18 15 12 11 9 6 8 5 7 4 8 9 4 3 2 3 3 3 3 5 6
29 30 28 29 32 29 18 15 0 19 27 31 37 31 29 33 35 32 31 27 25 22 18 15 13 12 10 8 10 9 8 6 7 8 6 4 3 2 3 5 5 5 7
18 23 22 22 30 35 36 31 21 14 27 30 32 26 29 34 34 33 30 29 25 23 19 14 13 10 13 10 11 10 11 10 11 8 7 8 6 4 3 3 4 6 7
23 20 20 21 25 28 36 32 27 13 27 33 35 37 35 34 33 29 28 29 25 21 17 16 15 14 12 12 11 12 11 10 9 11 9 8 7 6 5 6 6 7 10
17 17 22 23 25 25 29 36 24 28 33 34 39 37 38 37 33 28 28 27 24 22 22 20 17 15 13 11 11 10 11 10 12 9 10 11 10 8 7 7 7 8 10
14 16 21 23 26 25 29 29 33 39 36 34 34 35 35 33 31 28 29 27 26 23 22 20 18 16 14 12 10 9 12 13 14 11 10 8 13 9 9 6 7 8 8
9 16 24 26 26 30 30 32 38 32 33 34 34 32 30 31 31 30 27 26 25 24 22 20 18 16 15 13 13 12 12 13 13 11 12 6 12 10 6 5 7 7 8
20 4 23 25 25 30 28 31 24 28 28 36 38 35 30 29 29 29 27 26 25 26 22 20 19 17 16 13 9 6 10 10 15 16 13 14 12 7 4 6 7 7 8
10 20 20 23 23 24 23 22 29 27 25 31 31 35 33 30 30 29 26 23 25 22 20 20 21 17 12 17 7 4 1 5 16 16 13 15 12 8 5 5 7 7 7
20 29 28 30 32 30 29 27 27 19 16 22 20 22 27 31 30 29 25 23 21 21 21 20 16 14 11 13 14 6 2 5 3 9 15 14 13 11 8 9 9 7 8
22 22 23 31 30 33 32 31 31 26 19 19 25 26 18 22 21 19 19 19 17 16 20 19 16 17 17 19 15 19 14 5 2 2 8 13 11 9 10 11 9 8 9
19 18 17 18 25 25 32 31 33 26 25 24 19 21 20 18 16 12 9 10 11 14 14 14 16 19 21 22 16 7 11 7 6 1 2 6 10 12 10 11 10 10 9
7 23 24 20 22 23 26 28 27 22 18 21 19 14 9 12 15 17 14 13 14 19 18 14 14 18 19 21 17 18 16 8 11 7 3 3 5 5 10 10 11 10 9
Wind_Direction
164 165 164 160 158 157 154 155 161 161 156 149 142 139 141 140 136 129 130 132 130 128 119 113 114 108 107 106 100 100 99 95 93 94 95 85 79 81 72 78 77 70 75
167 166 165 162 159 161 161 159 163 166 162 156 149 146 146 145 142 138 137 139 135 122 119 115 112 112 109 110 109 104 100 97 89 83 92 89 84 82 77 77 72 68 84
162 165 165 163 161 163 167 168 166 167 167 163 155 150 150 147 144 147 135 132 129 122 122 116 116 114 113 113 113 111 104 100 95 87 85 89 88 78 79 80 75 71 74
162 167 167 167 164 165 168 172 173 170 173 169 164 158 156 150 147 141 144 135 129 127 125 126 120 116 116 115 116 108 97 93 107 115 88 96 89 79 81 78 76 72 72
163 170 171 170 169 170 171 175 178 176 180 176 171 166 162 153 150 148 141 139 144 140 136 129 127 121 118 119 118 108 99 98 103 106 94 97 96 83 82 86 81 77 76
164 172 173 172 175 174 175 178 179 178 184 183 178 171 166 157 155 155 150 145 136 140 144 141 130 122 120 121 119 108 105 103 105 104 92 96 91 89 86 81 77 75 77
162 172 176 178 177 178 176 180 179 177 184 185 182 177 167 162 159 156 151 148 145 150 156 147 131 127 124 126 121 110 106 105 116 82 94 99 95 92 90 87 83 78 73
164 171 176 181 180 180 176 177 179 179 183 184 183 178 168 163 164 155 153 154 147 157 157 146 138 134 130 128 127 119 115 110 115 76 91 99 99 95 90 87 82 77 73
163 170 175 181 180 179 178 178 181 182 185 186 185 177 171 165 164 154 160 160 154 157 159 154 146 141 138 135 136 133 117 126 126 102 92 95 100 99 93 88 82 75 69
157 167 172 178 179 177 178 182 180 184 187 186 182 178 168 168 160 162 162 161 162 164 166 163 156 151 147 140 137 137 121 119 116 107 84 85 109 103 93 85 76 68 62
156 162 171 169 175 181 184 180 182 181 184 186 181 177 170 164 166 167 166 164 165 173 171 163 158 152 147 142 137 139 135 134 149 172 168 57 116 117 104 90 77 68 58
150 159 163 166 168 172 184 185 180 181 180 184 180 171 168 168 169 168 168 171 171 178 168 165 162 159 152 145 144 149 144 132 145 161 187 302 212 175 154 120 96 72 44
175 168 169 164 158 164 166 176 185 184 180 180 177 174 172 170 172 174 171 174 175 182 174 171 168 165 165 162 151 143 152 161 174 201 203 293 231 222 216 229 243 309 319
189 190 186 185 172 158 143 158 182 194 188 179 175 175 171 174 177 178 176 179 181 184 181 179 174 170 172 190 182 182 198 198 196 204 211 223 291 232 232 235 262 287 296
185 202 203 204 203 197 210 208 35 211 198 187 174 176 177 180 179 180 180 181 187 185 184 180 171 174 183 199 205 220 209 207 193 204 218 234 254 236 246 256 270 283 294
221 194 208 213 212 217 216 212 215 253 205 195 202 190 186 184 181 185 186 189 188 186 183 180 191 196 192 206 215 210 212 223 239 221 223 242 244 254 267 265 279 289 290
245 236 225 221 225 218 213 204 205 247 217 199 194 191 194 188 186 186 186 183 180 180 189 190 197 200 207 207 214 221 229 228 232 225 240 246 251 228 248 241 263 276 291
242 239 246 228 211 215 215 224 225 232 212 198 192 195 194 188 186 185 181 181 182 187 191 194 196 200 200 202 198 218 230 221 237 239 246 236 232 232 217 220 251 279 300
209 225 227 225 218 212 208 194 198 181 194 193 193 186 181 181 184 182 185 185 186 190 190 195 198 200 206 208 213 218 235 233 231 241 247 238 235 226 215 237 272 295 293
175 221 221 217 205 197 190 163 150 184 190 185 182 181 178 184 188 190 189 189 188 190 193 193 196 199 203 204 211 221 230 242 220 231 240 213 184 188 209 241 283 286 290
225 326 211 194 194 184 178 155 173 194 185 196 190 183 185 190 189 190 191 192 195 191 194 197 198 201 205 211 202 222 234 237 232 242 248 209 188 189 239 270 252 276 295
233 253 245 196 192 179 184 174 163 186 198 199 192 187 187 188 188 189 192 191 188 196 199 203 209 201 205 208 182 154 204 237 240 248 227 199 204 215 234 240 253 269 291
193 203 216 214 197 190 192 167 154 166 188 181 193 195 197 193 188 190 188 188 186 197 198 203 203 204 191 190 200 181 163 207 159 183 202 213 201 201 208 223 231 250 273
194 210 233 224 189 198 189 164 160 172 175 197 193 194 188 198 193 190 198 206 205 211 213 218 222 228 236 235 225 222 236 164 163 196 180 186 193 197 231 231 229 254 272
195 213 217 129 163 173 170 164 163 164 172 181 178 174 179 170 172 172 186 209 222 227 225 222 221 223 230 241 218 183 201 201 218 131 202 209 232 249 230 233 246 249 273
270 217 159 146 125 137 123 120 132 143 141 149 151 181 196 206 206 193 215 235 236 239 236 239 235 235 236 222 233 214 196 174 189 192 228 230 215 224 224 227 232 246 245